Regional Weather Roundup
Issued by NWS

Home | Current Version | Previous Version | Graphics & Text | Print | Product List | Glossary On
Versions: 1 2 3 4 5 6 7 8 9 10 11 12 13 14 15 16 17 18 19 20 21 22 23 24 25 26 27 28 29 30 31 32 33 34 35 36 37 38 39 40 41 42 43 44 45 46 47 48 49 50
000
ASUS43 KIND 242359
RWRIN

WEATHER ROUNDUP FOR INDIANA
NATIONAL WEATHER SERVICE INDIANAPOLIS IN
700 PM EST SAT FEB 24 2018

NOTE: "FAIR" INDICATES FEW OR NO CLOUDS BELOW 12,000 FEET WITH NO
SIGNIFICANT WEATHER AND/OR OBSTRUCTIONS TO VISIBILITY.

* - STATION DOES NOT REPORT WEATHER SUCH AS PRECIPITATION OR FOG.

+ - STATION NOT QUALITY CONTROLLED BY THE NATIONAL WEATHER SERVICE.
    USE DATA WITH CAUTION...ESPECIALLY DEWPOINT AND RELATIVE
    HUMIDITY OBSERVATIONS.

INZ001>003-010>013-019-020-250100-
NORTHWEST INDIANA

CITY           SKY/WX    TMP DP  RH WIND       PRES   REMARKS
GARY /AIRPORT/ CLOUDY    45  43  93 SE12G23   29.79F FOG
MONTICELLO +   CLOUDY    46  45  96 E10       29.82F
6HR MIN TEMP:  44; 6HR MAX TEMP:  47;


$$

LMZ046-743>745-250100-
SOUTHERN LAKE MICHIGAN

STATION/POSITION TIME  TEMP    WIND        PRES    WAVE
                       AIR SEA DIR/SP/G            HT
                 (UTC) (F)     (DEG/KT/KT) (MB)    (FT)
BURNS HARBOR     2340   44     120/ 16/ 23 1009.8F
MICHIGAN CITY    2330   42     110/ 14/ 20   N/A

$$

INZ004-005-014>016-021>024-250100-
NORTH CENTRAL INDIANA

CITY           SKY/WX    TMP DP  RH WIND       PRES   REMARKS
GOSHEN         CLOUDY    40  36  86 E14       29.89F WCI  32
6HR MIN TEMP:  40; 6HR MAX TEMP:  41;

SOUTH BEND     CLOUDY    39  36  89 SE20G25   29.86F WCI  29
6HR MIN TEMP:  39; 6HR MAX TEMP:  41;

WARSAW +       CLOUDY    41  39  93 MISG      29.89F

$$

INZ006>009-017-018-025>027-250100-
NORTHEAST INDIANA

CITY           SKY/WX    TMP DP  RH WIND       PRES   REMARKS
FORT WAYNE     CLOUDY    42  40  92 E16       29.91F
6HR MIN TEMP:  42; 6HR MAX TEMP:  43;

KENDALLVILLE + CLOUDY    37  35  91 E10G21    29.92F WCI  30

$$

INZ028-029-035-036-043>045-051>053-250100-
WEST CENTRAL INDIANA

CITY           SKY/WX    TMP DP  RH WIND       PRES   REMARKS
GREENCASTLE +  LGT RAIN  48  48 100 E9        29.82F
LAFAYETTE      CLOUDY    49  48  97 SE10      29.80F
6HR MIN TEMP:  45; 6HR MAX TEMP:  49; 6HR PCP: TRACE;

TERRE HAUTE    HVY RAIN  52  51  97 E13       29.79F FOG
6HR MIN TEMP:  51; 6HR MAX TEMP:  54; 6HR PCP:  0.20;


$$

INZ030>032-037>040-046>048-054>057-064-065-250100-
CENTRAL INDIANA

CITY           SKY/WX    TMP DP  RH WIND       PRES   REMARKS
COLUMBUS       LGT RAIN  50 N/A N/A SE7       29.85F FOG
INDIANAPOLIS   LGT RAIN  50  49  96 E10       29.83F FOG
6HR MIN TEMP:  47; 6HR MAX TEMP:  50; 6HR PCP:  0.08;

-EAGLE CREEK   LGT RAIN  51  48  89 E8        29.82F FOG
6HR MIN TEMP:  48; 6HR MAX TEMP:  52; 6HR PCP:  0.04;

KOKOMO +       RAIN      46  45  96 E13       29.86F
6HR MIN TEMP:  43; 6HR MAX TEMP:  47; 6HR PCP:  0.01;

MT COMFORT *+  CLOUDY    48  48 100 E9        29.85F
SHELBYVILLE    RAIN      51  49  92 E9        29.84F
6HR MIN TEMP:  50; 6HR MAX TEMP:  52; 6HR PCP:  0.04;


$$

INZ033-034-041-042-049-050-058-059-250100-
EAST CENTRAL INDIANA

CITY           SKY/WX    TMP DP  RH WIND       PRES   REMARKS
MUNCIE         CLOUDY    50  47  89 E9        29.87F
6HR MIN TEMP:  48; 6HR MAX TEMP:  51; 6HR PCP: TRACE;

RICHMOND +     LGT RAIN  46  46 100 SE14      29.90F

$$

INZ060-061-067>069-081>083-085>088-250100-
SOUTHWEST INDIANA

CITY           SKY/WX    TMP DP  RH WIND       PRES   REMARKS
EVANSVILLE     HVY RAIN  57  57 100 E6        29.73F VSB 1
6HR MIN TEMP:  53; 6HR MAX TEMP:  57; 6HR PCP:  0.87;

HUNTINGBURG +  LGT RAIN  55  55 100 E14       29.75F
6HR MIN TEMP:  53; 6HR MAX TEMP:  55; 6HR PCP:  0.76;


$$

INZ062-063-066-070>080-084-089>092-250100-
SOUTH CENTRAL AND SOUTHEAST INDIANA

CITY           SKY/WX    TMP DP  RH WIND       PRES   REMARKS
BLOOMINGTON    RAIN      52  51  97 SE8       29.82F FOG
6HR MIN TEMP:  50; 6HR MAX TEMP:  53; 6HR PCP:  0.11;

FRENCH LICK *+ CLOUDY    52 N/A N/A E7        29.80F
SEYMOUR +      LGT RAIN  54  54 100 SE3       29.84F

$$




USA.gov is the U.S. government's official web portal to all federal, state and local government web resources and services.